Home > Weather > Brades > Past weeks

Flag for Montserrat Weather for the Past 2 Weeks in Brades, Montserrat

Now
81 °F

Passing clouds.


Feels Like: 84 °F
Forecast: N/A
Wind: 13 mph from Southeast

Location: Vc Bird International Antigua Airport

Current Time: Feb 6, 2016 at 6:03:01 PM

Latest Report: Feb 6, 2016 at 5:00 PM


Visibility: N/A

Pressure: 30.04 "Hg

Humidity: 70%

Dew point: 70 °F

Location of BradesLocation

Historic Weather in Brades — Graph

°F

Brades Temperature Yesterday

Maximum temperature yesterday: 82 °F (at 11:00 AM)
Minimum temperature yesterday: 68 °F (at 2:00 AM)
Average temperature yesterday: 75 °F

High & Low Weather Summary for the Past Weeks

 TemperatureHumidityPressure
High84 °F (Feb 6, 11:00 AM)94% (Jan 25, 2:00 AM)30.15 "Hg (Jan 25, 2:00 AM)
Low68 °F (Feb 5, 2:00 AM)54% (Feb 4, 1:00 PM)29.86 "Hg (Jan 28, 9:16 AM)
Average77 °F74%30.03 "Hg
* Reported Jan 22 4:00 PM — Feb 6 4:00 PM, Brades, Weather by CustomWeather, © 2016

Note: Actual official high and low records may vary slightly from our data, if they occured in-between our weather recording intervals... More about our weather records

Advertising

Brades Weather History for the Previous 24 Hours

 ConditionsComfort  
Time TempWeatherWind HumidityBarometerVisibility
4:00 PM
Sat, Feb 6
82 °FPassing clouds.13 mph66%30.01 "HgN/A
3:00 PM82 °FScattered clouds.14 mph66%30.04 "HgN/A
2:00 PM84 °FPassing clouds.12 mph62%30.04 "HgN/A
1:00 PM84 °FPassing clouds.13 mph62%30.07 "HgN/A
12:00 PM82 °FPassing clouds.13 mph66%30.09 "HgN/A
11:00 AM84 °FPassing clouds.14 mph58%30.09 "HgN/A
10:00 AM82 °FPassing clouds.12 mph66%30.12 "HgN/A
8:00 AM79 °FPassing clouds.9 mph74%30.07 "HgN/A
7:00 AM77 °FPassing clouds.7 mph79%30.04 "HgN/A
6:00 AM75 °FPassing clouds.8 mph78%30.04 "HgN/A
5:00 AM77 °FPassing clouds.5 mph79%30.04 "HgN/A
4:00 AM77 °FPassing clouds.6 mph79%30.01 "HgN/A
3:00 AM77 °FPassing clouds.5 mph79%30.04 "HgN/A
2:00 AM75 °FPassing clouds.7 mph78%30.04 "HgN/A
1:00 AM77 °FPassing clouds.9 mph74%30.04 "HgN/A
12:00 AM77 °FPassing clouds.9 mph79%30.07 "HgN/A
11:00 PM
Fri, Feb 5
77 °FPassing clouds.10 mph74%30.07 "HgN/A
10:00 PM75 °FPassing clouds.8 mph78%30.07 "HgN/A
9:00 PM73 °FPassing clouds.7 mph83%30.04 "HgN/A
8:00 PM72 °FThunderstorms. Passing clouds.2 mph88%30.04 "HgN/A
7:00 PM75 °FThunderstorms. Passing clouds.3 mph78%30.01 "HgN/A
6:00 PM77 °FPassing clouds.8 mph79%29.98 "HgN/A
Weather by CustomWeather, © 2016

See weather overviewHow to use our weather pages